Regional Weather Roundup
Issued by NWS

Home | Current Version | Previous Version | Text Only | Print | Product List | Glossary On
Versions: 1 2 3 4 5 6 7 8 9 10 11 12 13 14 15 16 17 18 19 20 21 22 23 24 25 26 27 28 29 30 31 32 33 34 35 36 37 38 39 40 41 42 43 44 45 46 47 48 49 50
000
ASUS44 KBMX 231610
RWRAL

ALABAMA REGIONAL WEATHER ROUNDUP
NATIONAL WEATHER SERVICE BIRMINGHAM AL
1100 AM CDT FRI JUN 23 2017

NOTE: "FAIR" INDICATES FEW OR NO CLOUDS BELOW 12,000 FEET
WITH NO SIGNIFICANT WEATHER AND/OR OBSTRUCTIONS TO VISIBILITY.

THE REMARK "TC" DENOTES TEMPERATURE IN DEGREES CELSIUS.

ALZ001>011-014-016>018-020-231700-
NORTH ALABAMA

CITY           SKY/WX    TMP DP  RH WIND       PRES   REMARKS
MUSCLE SHOALS  PTSUNNY   83  72  69 S17G28    29.82F
HUNTSVILLE     CLOUDY    79  76  90 S14G23    29.88F
DECATUR        CLOUDY    79  74  84 S17G25    29.87F
HALEYVILLE     NOT AVBL
GADSDEN        CLOUDY    83  74  74 SW13G18   29.95F
$$

ALZ012-013-022-023-030>036-040>044-231700-
WEST CENTRAL ALABAMA

CITY           SKY/WX    TMP DP  RH WIND       PRES   REMARKS
TUSCALOOSA     PTSUNNY   83  77  82 S18G25    29.90F HX  92
$$

ALZ015-024>027-033>036-040>044-231700-
CENTRAL ALABAMA

CITY           SKY/WX    TMP DP  RH WIND       PRES   REMARKS
BIRMINGHAM     PTSUNNY   83  73  72 S20G28    29.96F
MONTGOMERY     MOSUNNY   87  72  60 S10       29.98F HX  93
SHELBY CO ARPT PTSUNNY   83  75  77 S10G20    29.96S HX  90
MAXWELL AFB    MOSUNNY   86  75  70 SW13G21   29.97F HX  95
GREENVILLE     FAIR      86  70  58 S13G20    29.98F HX  90
$$

ALZ019-021-028-029-037-038-045>048-231700-
EAST CENTRAL ALABAMA

CITY           SKY/WX    TMP DP  RH WIND       PRES   REMARKS
ANNISTON       PTSUNNY   82  72  71 S10G23    29.98S
ALEXANDER CITY CLOUDY    81  73  76 S12G18    30.00F
AUBURN         MOSUNNY   84  72  67 S17G25    30.03F
$$

ALZ051>064-231700-
SOUTHWEST ALABAMA

CITY           SKY/WX    TMP DP  RH WIND       PRES   REMARKS
MOBILE         PTSUNNY   84  75  74 S18       29.99S HX  92
BROOKLEY FIELD PTSUNNY   85  80  85 S14G23    30.00R HX  99
EVERGREEN      CLOUDY    87  73  62 S15       29.99F HX  94
$$

ALZ049-050-065>069-231700-
SOUTHEAST ALABAMA

CITY           SKY/WX    TMP DP  RH WIND       PRES   REMARKS
DOTHAN         MOSUNNY   86  74  67 SW15G22   30.05F HX  94
OZARK          MOSUNNY   87  74  66 S16G23    30.01F HX  95
TROY           CLOUDY    85  74  69 S12G21    30.01S HX  92
EUFAULA        FAIR      88  74  63 SW9G18    30.00F HX  96
$$



USA.gov is the U.S. government's official web portal to all federal, state and local government web resources and services.